Location: Ettringen
(48.1054°N, 10.6545°E)
Time: 21:55:15
(UTC+00:00)

Cosmos 1536 Rocket - Pass Details

Date: 18 November 2025
Orbit: 599 x 625 km, 82.5° (Epoch: 04 December)

Event Time Altitude Azimuth Distance (km) Brightness Sun altitude
Rises 17:05:46 0° 353° (N) 2,917 7.0 -14.8°
Reaches altitude 10° 17:08:04 10° 358° (N) 2,003 6.1 -15.2°
Maximum altitude 17:12:26 57° 78° (ENE) 734 3.6 -15.9°
Drops below altitude 10° 17:16:44 10° 157° (SSE) 1,973 6.0 -16.6°
Sets 17:18:59 0° 161° (SSE) 2,869 6.9 -17.0°
